Weather in Omaha

United States     41˚15′31″N   95˚56′26″W
temp.,
°C
wind,
m/s
gust,
m/s
humid.,
%
clouds,
%
prec.,
mm/h
press.,
hPa
HPBL,
m
29 november, sun
sun2900:00+5˚wsw35710 0.0 101698
03:00+4˚w34670 0.0 101660
06:00+5˚n718510 0.0 1019645
09:00+3˚nnw11175462 0.0 1024927
12:00+4˚nnw10154337 0.0 10261239
15:00+4˚nnw10154018 0.0 10251360
18:00+1˚nnw7144411 0.0 10281108
21:00−1˚nnw815440 0.0 1029980
30 november, mon
mon3000:00−2˚nnw514500 0.0 1030722
03:00−3˚nnw513530 0.0 1029494
06:00−4˚nw411570 0.0 1029304
09:00−2˚nnw47490 0.0 1028313
12:00+3˚nw34320 0.0 1025581
15:00+5˚wnw23281 0.0 1022637
18:00sse12391 0.0 102122
21:00−1˚sse23430 0.0 102123
1 december, tue
tue100:00−2˚sse34480 0.0 102059
03:00−3˚sse34520 0.0 101973
06:00−4˚se36540 0.0 1018119
09:00−1˚sse59450 0.0 1018297
12:00+4˚sse57360 0.0 1017532
15:00+6˚sse463866 0.0 1015647
18:00+1˚se235480 0.0 101722
21:00sse2261100 0.0 101822
2 december, wed
wed200:00−1˚ene1167100 0.0 101921
03:00−1˚nne2269100 0.0 101935
06:00−2˚n3475100 0.0 102195
09:00−1˚nne3567100 0.0 1022240
12:00+3˚nne4550100 0.0 1022512
15:00+4˚nne5745100 0.0 1022702
18:00+2˚nne51050100 0.0 1024364
21:00−1˚n5105076 0.0 1026303
3 december, thu
thu300:00−2˚n6115288 0.0 1026347
03:00−3˚n61268100 0.0 1027435
06:00−4˚n61288100 0.0 1027446
09:00−3˚n6118098 0.0 1028530
12:00+1˚nnw696293 0.0 1027666
15:00+3˚nnw575646 0.0 1025757
18:00−1˚nw336923 0.0 102757
21:00−2˚nw34760 0.0 102880